TimeEDT,TemperatureF,Dew PointF,Humidity,Sea Level PressureIn,VisibilityMPH,Wind Direction,Wind SpeedMPH,Gust SpeedMPH,PrecipitationIn,Events,Conditions,WindDirDegrees,DateUTC
12:53 AM,46.0,26.1,46,29.92,10.0,NNW,5.8,-,N/A,,Clear,330,2012-11-01 04:53:00
1:53 AM,39.0,27.0,62,29.93,10.0,Calm,Calm,-,0.00,,Clear,0,2012-11-01 05:53:00
2:53 AM,37.0,28.9,73,29.93,10.0,Calm,Calm,-,N/A,,Clear,0,2012-11-01 06:53:00
3:53 AM,36.0,27.0,70,29.93,9.0,NW,3.5,-,0.00,Snow,Light Snow,310,2012-11-01 07:53:00
4:53 AM,34.0,27.0,75,29.93,9.0,WNW,3.5,-,0.00,Snow,Light Snow,300,2012-11-01 08:53:00
5:53 AM,30.9,27.0,85,29.95,10.0,Calm,Calm,-,N/A,,Clear,0,2012-11-01 09:53:00
6:53 AM,30.0,26.1,85,29.96,10.0,Calm,Calm,-,N/A,,Clear,0,2012-11-01 10:53:00
7:53 AM,28.9,26.1,89,29.98,10.0,Calm,Calm,-,N/A,,Clear,0,2012-11-01 11:53:00
8:53 AM,32.0,28.0,85,30.00,10.0,Calm,Calm,-,N/A,,Clear,0,2012-11-01 12:53:00
9:53 AM,41.0,30.9,67,30.02,10.0,Calm,Calm,-,N/A,,Clear,0,2012-11-01 13:53:00
10:53 AM,51.1,24.1,35,30.03,10.0,North,4.6,-,N/A,,Clear,360,2012-11-01 14:53:00
11:53 AM,54.0,21.9,29,30.02,10.0,Calm,Calm,-,0.00,,Clear,0,2012-11-01 15:53:00
12:53 PM,57.9,19.0,22,30.01,10.0,North,6.9,-,N/A,,Clear,350,2012-11-01 16:53:00
1:53 PM,61.0,19.0,20,29.97,10.0,NW,8.1,-,N/A,,Clear,320,2012-11-01 17:53:00
2:53 PM,64.0,17.1,16,29.94,10.0,NNW,5.8,-,N/A,,Clear,330,2012-11-01 18:53:00
3:53 PM,64.9,15.1,15,29.93,10.0,Calm,Calm,-,N/A,,Clear,0,2012-11-01 19:53:00
4:53 PM,64.9,12.9,13,29.93,10.0,NW,12.7,-,N/A,,Clear,320,2012-11-01 20:53:00
5:53 PM,64.0,14.0,14,29.94,10.0,Calm,Calm,-,N/A,,Clear,0,2012-11-01 21:53:00
6:53 PM,59.0,19.0,21,29.95,10.0,West,6.9,-,N/A,,Clear,280,2012-11-01 22:53:00
7:53 PM,53.1,23.0,31,29.97,10.0,WNW,4.6,-,N/A,,Clear,290,2012-11-01 23:53:00
8:53 PM,46.9,28.0,48,29.97,10.0,West,3.5,-,N/A,,Clear,270,2012-11-02 00:53:00
9:53 PM,43.0,28.9,58,29.97,10.0,Calm,Calm,-,N/A,,Clear,0,2012-11-02 01:53:00
10:53 PM,39.9,30.0,68,29.98,10.0,Calm,Calm,-,N/A,,Clear,0,2012-11-02 02:53:00
11:53 PM,43.0,34.0,71,29.98,10.0,Calm,Calm,-,N/A,,Overcast,0,2012-11-02 03:53:00